Redmond, OR

3:16 AM PDT on March 27, 2017 (GMT -0700)
Roberts Field Airport

Weather History for KRDM - November, 2013

Change the Weather History Date:

Thursday, November 7, 2013

  Actual Average Record
Temperature  
Mean Temperature 45 °F 40 °F  
Max Temperature 59 °F 53 °F 70 °F (2004)
Min Temperature 31 °F 28 °F 8 °F (1973)
Degree Days  
Heating Degree Days 20 25  
Month to date heating degree days 163 166  
Since 1 July heating degree days 1092 1111  
Cooling Degree Days 0 0  
Month to date cooling degree days 0 0  
Year to date cooling degree days 350 222  
Moisture  
Dew Point 36 °F    
Average Humidity 75    
Maximum Humidity 92    
Minimum Humidity 57    
Precipitation  
Precipitation 0.09 in 0.03 in 0.57 in (1980)
Month to date precipitation 0.16 0.21  
Year to date precipitation 4.39 6.99  
Sea Level Pressure  
Sea Level Pressure 30.00 in    
Wind  
Wind Speed 9 mph (WSW)    
Max Wind Speed 32 mph    
Max Gust Speed 40 mph    
Visibility 9 miles    
Events Rain    
T = Trace of Precipitation, MM = Missing Value Source: NWS Daily Summary

Daily Weather History Graph

Daily Weather History Graph

Search for Another Location

Airport or City:

Trip Planner

Search our weather history database for the weather conditions in past years. The results will help you decide how hot, cold, wet, or windy it might be!

Date:

Astronomy

Nov. 07, 2013 Rise Set
Actual Time 6:50 AM PST 4:45 PM PST
Civil Twilight 6:19 AM PST 5:16 PM PST
Nautical Twilight 5:44 AM PST 5:51 PM PST
Astronomical Twilight 5:10 AM PST 6:25 PM PST
Moon 11:04 AM PST (11/7) 9:02 PM PST (11/7)
Length of Visible Light 10h 57m
Length of Day
9h 55m
Waxing Crescent, 24% of the Moon is Illuminated
Nov 7
Waxing Crescent
Nov 9
First Quarter
Nov 17
Full
Nov 25
Last Quarter
Dec 2
New

Hourly Weather History & Observations

Time (PST) Temp. Windchill Dew Point Humidity Pressure Visibility Wind Dir Wind Speed Gust Speed Precip Events Conditions
12:56 AM 46.0 °F 44.8 °F 43.0 °F 89% 30.10 in 10.0 mi East 3.5 mph - N/A   Overcast
1:56 AM 48.9 °F - 44.1 °F 83% 30.07 in 10.0 mi South 6.9 mph - N/A   Partly Cloudy
2:56 AM 48.9 °F - 43.0 °F 80% 30.04 in 10.0 mi South 10.4 mph - N/A   Clear
3:56 AM 48.9 °F - 43.0 °F 80% 30.02 in 10.0 mi SE 3.5 mph - N/A   Clear
4:56 AM 48.0 °F - 42.1 °F 80% 30.01 in 10.0 mi South 5.8 mph - N/A   Clear
5:56 AM 51.1 °F - 41.0 °F 68% 29.99 in 10.0 mi South 11.5 mph - N/A   Clear
6:56 AM 48.0 °F - 41.0 °F 77% 29.97 in 10.0 mi South 12.7 mph - N/A   Partly Cloudy
7:56 AM 48.9 °F - 41.0 °F 74% 29.96 in 10.0 mi South 4.6 mph - N/A   Overcast
8:56 AM 53.1 °F - 41.0 °F 64% 29.94 in 10.0 mi SSW 9.2 mph - N/A   Overcast
9:56 AM 54.0 °F - 41.0 °F 62% 29.90 in 10.0 mi SSW 13.8 mph 24.2 mph 0.00 in Rain Light Rain
10:56 AM 55.9 °F - 37.9 °F 51% 29.89 in 10.0 mi SW 26.5 mph 36.8 mph 0.01 in   Overcast
11:50 AM 42.8 °F 32.3 °F 37.4 °F 81% 29.95 in 2.5 mi WNW 29.9 mph 40.3 mph 0.03 in Rain Rain
11:56 AM 43.0 °F 33.5 °F 37.9 °F 82% 29.96 in 4.0 mi WNW 24.2 mph 40.3 mph 0.05 in Rain Rain
11:58 AM 42.8 °F 34.3 °F 37.4 °F 81% 29.95 in 2.0 mi WNW 19.6 mph 40.3 mph 0.00 in Rain Rain
12:02 PM 42.8 °F 34.0 °F 37.4 °F 81% 29.97 in 3.0 mi WNW 20.7 mph 33.4 mph 0.01 in Rain Light Rain
12:56 PM 44.1 °F 37.4 °F 39.0 °F 82% 29.95 in 10.0 mi West 13.8 mph - 0.02 in   Overcast
1:56 PM 46.0 °F 40.2 °F 37.9 °F 73% 29.95 in 10.0 mi West 12.7 mph - N/A   Overcast
2:56 PM 45.0 °F 36.0 °F 30.9 °F 58% 29.94 in 10.0 mi WNW 25.3 mph 32.2 mph 0.01 in Rain Light Rain
3:56 PM 44.1 °F 40.8 °F 30.9 °F 60% 29.98 in 10.0 mi WNW 5.8 mph - 0.00 in   Mostly Cloudy
4:56 PM 42.1 °F 34.2 °F 28.0 °F 58% 30.00 in 10.0 mi NW 16.1 mph 23.0 mph N/A   Partly Cloudy
5:56 PM 42.1 °F 34.2 °F 28.0 °F 58% 30.00 in 10.0 mi West 16.1 mph 25.3 mph N/A   Clear
6:56 PM 39.0 °F 36.8 °F 28.0 °F 65% 30.04 in 10.0 mi Variable 3.5 mph - N/A   Clear
7:56 PM 37.0 °F - 28.0 °F 70% 30.07 in 10.0 mi Calm Calm - N/A   Overcast
8:56 PM 39.9 °F - 28.0 °F 63% 30.07 in 10.0 mi Calm Calm - N/A   Clear
9:56 PM 37.9 °F - 27.0 °F 65% 30.07 in 10.0 mi Calm Calm - N/A   Partly Cloudy
10:56 PM 33.1 °F - 27.0 °F 78% 30.09 in 10.0 mi Calm Calm - N/A   Clear
11:56 PM 33.1 °F - 27.0 °F 78% 30.14 in 10.0 mi Calm Calm - N/A   Clear